Hourly Data Report for February 05, 2017

All times are specified in Local Standard Time (LST). Add 1 hour to adjust for Daylight Saving Time where and when it is observed.

COLVILLE LAKE
NORTHWEST TERRITORIES

67°01'17.040" N
126°07'23.070" W
271.00 m
2200824
71055
WFX

Download Data

Hourly Data (February 2017)
Hourly Data Report for February 5, 2017
Temp Definition
°C
Dew Point Temp Definition
°C
Rel Hum Definition
%
Wind Dir Definition
10's deg

Wind Spd Definition
km/h
Visibility Definition
km
Stn Press Definition
kPa
Hmdx Definition


Wind Chill Definition


Weather Definition


TIME
00:00 -11.1 -12.1 92 31 9   98.89   -16 LegendNANA
01:00 -11.1 -12.2 91 31 9   98.88   -16 LegendNANA
02:00 -11.2 -12.4 91 33 8   98.86   -16 LegendNANA
03:00 -11.1 -12.4 90 32 7   98.85   -15 LegendNANA
04:00 -11.2 -12.6 90 32 11   98.80   -17 LegendNANA
05:00 -11.5 -12.9 90 34 12   98.78   -18 LegendNANA
06:00 -11.9 -13.3 89 34 9   98.74   -17 LegendNANA
07:00 -12.1 -13.5 89 32 8   98.68   -17 LegendNANA
08:00 -12.0 -13.4 89 33 9   98.69   -17 LegendNANA
09:00 -12.2 -13.7 89 33 10   98.70   -18 LegendNANA
10:00 -12.5 -14.0 89 32 11   98.71   -19 LegendNANA
11:00 -12.8 -14.4 88 33 12   98.72   -19 LegendNANA
12:00 -12.8 -14.4 88 33 9   98.71   -18 LegendNANA
13:00 -13.6 -15.4 86 34 9   98.72   -19 LegendNANA
14:00 -14.1 -16.2 84 34 9   98.74   -20 LegendNANA
15:00 -14.8 -16.6 86 34 12   98.76   -22 LegendNANA
16:00 -14.3 -15.9 87 34 11   98.81   -21 LegendNANA
17:00 -13.7 -15.2 89 34 9   98.81   -19 LegendNANA
18:00 -13.1 -14.5 89 35 8   98.85   -18 LegendNANA
19:00 -13.0 -14.4 89 35 12   98.89   -20 LegendNANA
20:00 -13.4 -14.9 88 35 9   98.93   -19 LegendNANA
21:00 -13.5 -14.9 89 35 8   98.95   -19 LegendNANA
22:00 -13.2 -14.8 88 2 9   98.96   -19 LegendNANA
23:00 -13.4 -15.1 88 3 6   98.99   -17 LegendNANA

Notes on Data Quality.

Legend

  • E = Estimated
  • M = Missing
  • NA = Not Available
  • ‡ = Partner data that is not subject to review by the National Climate Archives
Date modified: